Year,Month,Day,Hour,Minute,Value (Times are PST for temperature in C)
2017,06,25,00,00,19.70
2017,06,25,00,01,19.70
2017,06,25,00,02,19.70
2017,06,25,00,03,19.70
2017,06,25,00,04,19.70
2017,06,25,00,05,19.70
2017,06,25,00,06,19.60
2017,06,25,00,07,19.70
2017,06,25,00,08,19.60
2017,06,25,00,09,19.60
2017,06,25,00,10,19.60
2017,06,25,00,11,19.60
2017,06,25,00,12,19.60
2017,06,25,00,13,19.60
2017,06,25,00,14,19.60
2017,06,25,00,15,19.60
2017,06,25,00,16,19.60
2017,06,25,00,17,19.60
2017,06,25,00,18,19.60
2017,06,25,00,19,19.60
2017,06,25,00,20,19.60
2017,06,25,00,21,19.60
2017,06,25,00,22,19.60
2017,06,25,00,23,19.60
2017,06,25,00,24,19.60
2017,06,25,00,25,19.60
2017,06,25,00,26,19.60
2017,06,25,00,27,19.50
2017,06,25,00,28,19.50
2017,06,25,00,29,19.50
2017,06,25,00,30,19.50
2017,06,25,00,31,19.40
2017,06,25,00,32,19.40
2017,06,25,00,33,19.40
2017,06,25,00,34,19.40
2017,06,25,00,35,19.30
2017,06,25,00,36,19.30
2017,06,25,00,37,19.20
2017,06,25,00,38,19.20
2017,06,25,00,39,19.10
2017,06,25,00,40,19.10
2017,06,25,00,41,19.00
2017,06,25,00,42,19.00
2017,06,25,00,43,18.90
2017,06,25,00,44,18.80
2017,06,25,00,45,18.80
2017,06,25,00,46,18.70
2017,06,25,00,47,18.70
2017,06,25,00,48,18.60
2017,06,25,00,49,18.50
2017,06,25,00,50,18.50
2017,06,25,00,51,18.40
2017,06,25,00,52,18.40
2017,06,25,00,53,18.30
2017,06,25,00,54,18.30
2017,06,25,00,55,18.30
2017,06,25,00,56,18.30
2017,06,25,00,57,18.30
2017,06,25,00,58,18.20
2017,06,25,00,59,18.20
2017,06,25,01,00,18.20
2017,06,25,01,01,18.20
2017,06,25,01,02,18.20
2017,06,25,01,03,18.20
2017,06,25,01,04,18.20
2017,06,25,01,05,18.10
2017,06,25,01,06,18.10
2017,06,25,01,07,18.10
2017,06,25,01,08,18.10
2017,06,25,01,09,18.10
2017,06,25,01,10,18.10
2017,06,25,01,11,18.10
2017,06,25,01,12,18.10
2017,06,25,01,13,18.10
2017,06,25,01,14,18.10
2017,06,25,01,15,18.10
2017,06,25,01,16,18.10
2017,06,25,01,17,18.00
2017,06,25,01,18,18.00
2017,06,25,01,19,18.00
2017,06,25,01,20,18.00
2017,06,25,01,21,18.00
2017,06,25,01,22,18.00
2017,06,25,01,23,18.00
2017,06,25,01,24,18.00
2017,06,25,01,25,18.00
2017,06,25,01,26,18.00
2017,06,25,01,27,18.00
2017,06,25,01,28,18.00
2017,06,25,01,29,18.00
2017,06,25,01,30,18.00
2017,06,25,01,31,18.00
2017,06,25,01,32,17.90
2017,06,25,01,33,17.90
2017,06,25,01,34,17.90
2017,06,25,01,35,17.90
2017,06,25,01,36,17.90
2017,06,25,01,37,17.90
2017,06,25,01,38,17.90
2017,06,25,01,39,17.90
2017,06,25,01,40,17.90
2017,06,25,01,41,17.90
2017,06,25,01,42,17.90
2017,06,25,01,43,17.90
2017,06,25,01,44,17.90
2017,06,25,01,45,17.90
2017,06,25,01,46,17.90
2017,06,25,01,47,17.90
2017,06,25,01,48,17.90
2017,06,25,01,49,17.90
2017,06,25,01,50,17.80
2017,06,25,01,51,17.80
2017,06,25,01,52,17.80
2017,06,25,01,53,17.80
2017,06,25,01,54,17.80
2017,06,25,01,55,17.80
2017,06,25,01,56,17.80
2017,06,25,01,57,17.80
2017,06,25,01,58,17.80
2017,06,25,01,59,17.80
2017,06,25,02,00,17.80
2017,06,25,02,01,17.80
2017,06,25,02,02,17.80
2017,06,25,02,03,17.80
2017,06,25,02,04,17.80
2017,06,25,02,05,17.80
2017,06,25,02,06,17.80
2017,06,25,02,07,17.80
2017,06,25,02,08,17.70
2017,06,25,02,09,17.70
2017,06,25,02,10,17.60
2017,06,25,02,11,17.60
2017,06,25,02,12,17.60
2017,06,25,02,13,17.50
2017,06,25,02,14,17.50
2017,06,25,02,15,17.40
2017,06,25,02,16,17.40
2017,06,25,02,17,17.40
2017,06,25,02,18,17.30
2017,06,25,02,19,17.30
2017,06,25,02,20,17.30
2017,06,25,02,21,17.30
2017,06,25,02,22,17.20
2017,06,25,02,23,17.20
2017,06,25,02,24,17.20
2017,06,25,02,25,17.20
2017,06,25,02,26,17.20
2017,06,25,02,27,17.20
2017,06,25,02,28,17.20
2017,06,25,02,29,17.20
2017,06,25,02,30,17.20
2017,06,25,02,31,17.20
2017,06,25,02,32,17.10
2017,06,25,02,33,17.20
2017,06,25,02,34,17.10
2017,06,25,02,35,17.20
2017,06,25,02,36,17.10
2017,06,25,02,37,17.10
2017,06,25,02,38,17.10
2017,06,25,02,39,17.10
2017,06,25,02,40,17.10
2017,06,25,02,41,17.00
2017,06,25,02,42,17.00
2017,06,25,02,43,17.00
2017,06,25,02,44,16.90
2017,06,25,02,45,16.90
2017,06,25,02,46,16.90
2017,06,25,02,47,16.80
2017,06,25,02,48,16.80
2017,06,25,02,49,16.80
2017,06,25,02,50,16.80
2017,06,25,02,51,16.80
2017,06,25,02,52,16.80
2017,06,25,02,53,16.70
2017,06,25,02,54,16.70
2017,06,25,02,55,16.70
2017,06,25,02,56,16.80
2017,06,25,02,57,16.80
2017,06,25,02,58,16.80
2017,06,25,02,59,16.80
2017,06,25,03,00,16.80
2017,06,25,03,01,16.80
2017,06,25,03,02,16.80
2017,06,25,03,03,16.80
2017,06,25,03,04,16.80
2017,06,25,03,05,16.80
2017,06,25,03,06,16.80
2017,06,25,03,07,16.80
2017,06,25,03,08,16.80
2017,06,25,03,09,16.80
2017,06,25,03,10,16.70
2017,06,25,03,11,16.70
2017,06,25,03,12,16.70
2017,06,25,03,13,16.70
2017,06,25,03,14,16.60
2017,06,25,03,15,16.60
2017,06,25,03,16,16.60
2017,06,25,03,17,16.60
2017,06,25,03,18,16.60
2017,06,25,03,19,16.50
2017,06,25,03,20,16.50
2017,06,25,03,21,16.40
2017,06,25,03,22,16.40
2017,06,25,03,23,16.40
2017,06,25,03,24,16.40
2017,06,25,03,25,16.40
2017,06,25,03,26,16.40
2017,06,25,03,27,16.30
2017,06,25,03,28,16.30
2017,06,25,03,29,16.30
2017,06,25,03,30,16.30
2017,06,25,03,31,16.30
2017,06,25,03,32,16.30
2017,06,25,03,33,16.30
2017,06,25,03,34,16.30
2017,06,25,03,35,16.30
2017,06,25,03,36,16.30
2017,06,25,03,37,16.40
2017,06,25,03,38,16.40
2017,06,25,03,39,16.40
2017,06,25,03,40,16.40
2017,06,25,03,41,16.40
2017,06,25,03,42,16.40
2017,06,25,03,43,16.40
2017,06,25,03,44,16.50
2017,06,25,03,45,16.50
2017,06,25,03,46,16.50
2017,06,25,03,47,16.60
2017,06,25,03,48,16.60
2017,06,25,03,49,16.70
2017,06,25,03,50,16.70
2017,06,25,03,51,16.70
2017,06,25,03,52,16.70
2017,06,25,03,53,16.70
2017,06,25,03,54,16.70
2017,06,25,03,55,16.70
2017,06,25,03,56,16.70
2017,06,25,03,57,16.70
2017,06,25,03,58,16.70
2017,06,25,03,59,16.60
2017,06,25,04,00,16.60
2017,06,25,04,01,16.60
2017,06,25,04,02,16.60
2017,06,25,04,03,16.50
2017,06,25,04,04,16.50
2017,06,25,04,05,16.50
2017,06,25,04,06,16.50
2017,06,25,04,07,16.50
2017,06,25,04,08,16.50
2017,06,25,04,09,16.50
2017,06,25,04,10,16.50
2017,06,25,04,11,16.50
2017,06,25,04,12,16.50
2017,06,25,04,13,16.50
2017,06,25,04,14,16.50
2017,06,25,04,15,16.50
2017,06,25,04,16,16.50
2017,06,25,04,17,16.50
2017,06,25,04,18,16.50
2017,06,25,04,19,16.60
2017,06,25,04,20,16.60
2017,06,25,04,21,16.60
2017,06,25,04,22,16.60
2017,06,25,04,23,16.60
2017,06,25,04,24,16.60
2017,06,25,04,25,16.60
2017,06,25,04,26,16.60
2017,06,25,04,27,16.60
2017,06,25,04,28,16.70
2017,06,25,04,29,16.70
2017,06,25,04,30,16.70
2017,06,25,04,31,16.70
2017,06,25,04,32,16.70
2017,06,25,04,33,16.70
2017,06,25,04,34,16.80
2017,06,25,04,35,16.80
2017,06,25,04,36,16.80
2017,06,25,04,37,16.80
2017,06,25,04,38,16.80
2017,06,25,04,39,16.90
2017,06,25,04,40,16.90
2017,06,25,04,41,16.90
2017,06,25,04,42,16.90
2017,06,25,04,43,16.90
2017,06,25,04,44,16.90
2017,06,25,04,45,17.00
2017,06,25,04,46,17.00
2017,06,25,04,47,17.10
2017,06,25,04,48,17.10
2017,06,25,04,49,17.20
2017,06,25,04,50,17.20
2017,06,25,04,51,17.20
2017,06,25,04,52,17.20
2017,06,25,04,53,17.20
2017,06,25,04,54,17.30
2017,06,25,04,55,17.30
2017,06,25,04,56,17.30
2017,06,25,04,57,17.30
2017,06,25,04,58,17.30
2017,06,25,04,59,17.30
2017,06,25,05,00,17.30
2017,06,25,05,01,17.30
2017,06,25,05,02,17.30
2017,06,25,05,03,17.40
2017,06,25,05,04,17.40
2017,06,25,05,05,17.40
2017,06,25,05,06,17.40
2017,06,25,05,07,17.40
2017,06,25,05,08,17.40
2017,06,25,05,09,17.40
2017,06,25,05,10,17.40
2017,06,25,05,11,17.40
2017,06,25,05,12,17.30
2017,06,25,05,13,17.20
2017,06,25,05,14,17.10
2017,06,25,05,15,17.00
2017,06,25,05,16,16.90
2017,06,25,05,17,16.80
2017,06,25,05,18,16.70
2017,06,25,05,19,16.70
2017,06,25,05,20,16.60
2017,06,25,05,21,16.60
2017,06,25,05,22,16.60
2017,06,25,05,23,16.50
2017,06,25,05,24,16.50
2017,06,25,05,25,16.50
2017,06,25,05,26,16.50
2017,06,25,05,27,16.50
2017,06,25,05,28,16.50
2017,06,25,05,29,16.50
2017,06,25,05,30,16.50
2017,06,25,05,31,16.50
2017,06,25,05,32,16.50
2017,06,25,05,33,16.50
2017,06,25,05,34,16.50
2017,06,25,05,35,16.50
2017,06,25,05,36,16.50
2017,06,25,05,37,16.60
2017,06,25,05,38,16.60
2017,06,25,05,39,16.60
2017,06,25,05,40,16.70
2017,06,25,05,41,16.70
2017,06,25,05,42,16.80
2017,06,25,05,43,16.80
2017,06,25,05,44,16.80
2017,06,25,05,45,16.90
2017,06,25,05,46,16.90
2017,06,25,05,47,17.00
2017,06,25,05,48,17.00
2017,06,25,05,49,17.00
2017,06,25,05,50,17.10
2017,06,25,05,51,17.10
2017,06,25,05,52,17.10
2017,06,25,05,53,17.20
2017,06,25,05,54,17.20
2017,06,25,05,55,17.20
2017,06,25,05,56,17.20
2017,06,25,05,57,17.30
2017,06,25,05,58,17.30
2017,06,25,05,59,17.30
2017,06,25,06,00,17.30
2017,06,25,06,01,17.40
2017,06,25,06,02,17.40
2017,06,25,06,03,17.40
2017,06,25,06,04,17.40
2017,06,25,06,05,17.50
2017,06,25,06,06,17.50
2017,06,25,06,07,17.60
2017,06,25,06,08,17.60
2017,06,25,06,09,17.60
2017,06,25,06,10,17.60
2017,06,25,06,11,17.70
2017,06,25,06,12,17.70
2017,06,25,06,13,17.70
2017,06,25,06,14,17.70
2017,06,25,06,15,17.70
2017,06,25,06,16,17.70
2017,06,25,06,17,17.80
2017,06,25,06,18,17.80
2017,06,25,06,19,17.80
2017,06,25,06,20,17.80
2017,06,25,06,21,17.90
2017,06,25,06,22,17.90
2017,06,25,06,23,18.00
2017,06,25,06,24,18.00
2017,06,25,06,25,18.00
2017,06,25,06,26,18.10
2017,06,25,06,27,18.10
2017,06,25,06,28,18.10
2017,06,25,06,29,18.20
2017,06,25,06,30,18.20
2017,06,25,06,31,18.30
2017,06,25,06,32,18.30
2017,06,25,06,33,18.40
2017,06,25,06,34,18.40
2017,06,25,06,35,18.50
2017,06,25,06,36,18.50
2017,06,25,06,37,18.60
2017,06,25,06,38,18.60
2017,06,25,06,39,18.60
2017,06,25,06,40,18.70
2017,06,25,06,41,18.70
2017,06,25,06,42,18.70
2017,06,25,06,43,18.80
2017,06,25,06,44,18.80
2017,06,25,06,45,18.80
2017,06,25,06,46,18.80
2017,06,25,06,47,18.80
2017,06,25,06,48,18.80
2017,06,25,06,49,18.90
2017,06,25,06,50,18.90
2017,06,25,06,51,18.80
2017,06,25,06,52,18.80
2017,06,25,06,53,18.80
2017,06,25,06,54,18.80
2017,06,25,06,55,18.80
2017,06,25,06,56,18.80
2017,06,25,06,57,18.80
2017,06,25,06,58,18.80
2017,06,25,06,59,18.80
2017,06,25,07,00,18.80
2017,06,25,07,01,18.80
2017,06,25,07,02,18.80
2017,06,25,07,03,18.80
2017,06,25,07,04,18.80
2017,06,25,07,05,18.80
2017,06,25,07,06,18.80
2017,06,25,07,07,18.90
2017,06,25,07,08,18.90
2017,06,25,07,09,19.00
2017,06,25,07,10,19.00
2017,06,25,07,11,19.10
2017,06,25,07,12,19.10
2017,06,25,07,13,19.20
2017,06,25,07,14,19.20
2017,06,25,07,15,19.30
2017,06,25,07,16,19.40
2017,06,25,07,17,19.40
2017,06,25,07,18,19.50
2017,06,25,07,19,19.60
2017,06,25,07,20,19.60
2017,06,25,07,21,19.60
2017,06,25,07,22,19.70
2017,06,25,07,23,19.70
2017,06,25,07,24,19.80
2017,06,25,07,25,19.80
2017,06,25,07,26,19.90
2017,06,25,07,27,19.90
2017,06,25,07,28,20.00
2017,06,25,07,29,20.00
2017,06,25,07,30,20.10
2017,06,25,07,31,20.10
2017,06,25,07,32,20.20
2017,06,25,07,33,20.20
2017,06,25,07,34,20.30
2017,06,25,07,35,20.30
2017,06,25,07,36,20.40
2017,06,25,07,37,20.40
2017,06,25,07,38,20.40
2017,06,25,07,39,20.40
2017,06,25,07,40,20.40
2017,06,25,07,41,20.40
2017,06,25,07,42,20.30
2017,06,25,07,43,20.30
2017,06,25,07,44,20.30
2017,06,25,07,45,20.20
2017,06,25,07,46,20.20
2017,06,25,07,47,20.10
2017,06,25,07,48,20.10
2017,06,25,07,49,20.10
2017,06,25,07,50,20.00
2017,06,25,07,51,20.00
2017,06,25,07,52,19.90
2017,06,25,07,53,19.90
2017,06,25,07,54,19.90
2017,06,25,07,55,19.90
2017,06,25,07,56,20.00
2017,06,25,07,57,20.00
2017,06,25,07,58,19.90
2017,06,25,07,59,19.90
2017,06,25,08,00,19.90
2017,06,25,08,01,20.00
2017,06,25,08,02,20.00
2017,06,25,08,03,20.00
2017,06,25,08,04,20.10
2017,06,25,08,05,20.10
2017,06,25,08,06,20.20
2017,06,25,08,07,20.20
2017,06,25,08,08,20.20
2017,06,25,08,09,20.30
2017,06,25,08,10,20.30
2017,06,25,08,11,20.30
2017,06,25,08,12,20.40
2017,06,25,08,13,20.40
2017,06,25,08,14,20.40
2017,06,25,08,15,20.40
2017,06,25,08,16,20.40
2017,06,25,08,17,20.50
2017,06,25,08,18,20.50
2017,06,25,08,19,20.60
2017,06,25,08,20,20.60
2017,06,25,08,21,20.70
2017,06,25,08,22,20.80
2017,06,25,08,23,20.80
2017,06,25,08,24,20.90
2017,06,25,08,25,21.00
2017,06,25,08,26,21.00
2017,06,25,08,27,21.10
2017,06,25,08,28,21.20
2017,06,25,08,29,21.30
2017,06,25,08,30,21.40
2017,06,25,08,31,21.50
2017,06,25,08,32,21.60
2017,06,25,08,33,21.80
2017,06,25,08,34,22.00
2017,06,25,08,35,22.10
2017,06,25,08,36,22.20
2017,06,25,08,37,22.30
2017,06,25,08,38,22.40
2017,06,25,08,39,22.50
2017,06,25,08,40,22.50
2017,06,25,08,41,22.60
2017,06,25,08,42,22.60
2017,06,25,08,43,22.70
2017,06,25,08,44,22.80
2017,06,25,08,45,22.80
2017,06,25,08,46,22.90
2017,06,25,08,47,23.00
2017,06,25,08,48,23.10
2017,06,25,08,49,23.20
2017,06,25,08,50,23.20
2017,06,25,08,51,23.30
2017,06,25,08,52,23.40
2017,06,25,08,53,23.50
2017,06,25,08,54,23.50
2017,06,25,08,55,23.60
2017,06,25,08,56,23.70
2017,06,25,08,57,23.80
2017,06,25,08,58,23.90
2017,06,25,08,59,24.00
2017,06,25,09,00,24.10
2017,06,25,09,01,24.20
2017,06,25,09,02,24.30
2017,06,25,09,03,24.30
2017,06,25,09,04,24.30
2017,06,25,09,05,24.30
2017,06,25,09,06,24.30
2017,06,25,09,07,24.30
2017,06,25,09,08,24.30
2017,06,25,09,09,24.40
2017,06,25,09,10,24.50
2017,06,25,09,11,24.50
2017,06,25,09,12,24.60
2017,06,25,09,13,24.70
2017,06,25,09,14,24.70
2017,06,25,09,15,24.70
2017,06,25,09,16,24.80
2017,06,25,09,17,24.70
2017,06,25,09,18,24.80
2017,06,25,09,19,24.80
2017,06,25,09,20,24.90
2017,06,25,09,21,25.00
2017,06,25,09,22,24.90
2017,06,25,09,23,24.80
2017,06,25,09,24,24.80
2017,06,25,09,25,24.80
2017,06,25,09,26,24.80
2017,06,25,09,27,24.80
2017,06,25,09,28,24.90
2017,06,25,09,29,24.90
2017,06,25,09,30,24.80
2017,06,25,09,31,24.80
2017,06,25,09,32,24.90
2017,06,25,09,33,24.90
2017,06,25,09,34,25.00
2017,06,25,09,35,25.00
2017,06,25,09,36,25.20
2017,06,25,09,37,25.20
2017,06,25,09,38,25.20
2017,06,25,09,39,25.20
2017,06,25,09,40,25.20
2017,06,25,09,41,25.20
2017,06,25,09,42,25.10
2017,06,25,09,43,25.00
2017,06,25,09,44,24.80
2017,06,25,09,45,24.70
2017,06,25,09,46,24.60
2017,06,25,09,47,24.60
2017,06,25,09,48,24.70
2017,06,25,09,49,24.70
2017,06,25,09,50,24.70
2017,06,25,09,51,24.70
2017,06,25,09,52,24.70
2017,06,25,09,53,24.60
2017,06,25,09,54,24.50
2017,06,25,09,55,24.30
2017,06,25,09,56,24.10
2017,06,25,09,57,24.00
2017,06,25,09,58,23.90
2017,06,25,09,59,23.90
2017,06,25,10,00,23.90
2017,06,25,10,01,24.00
2017,06,25,10,02,24.10
2017,06,25,10,03,24.10
2017,06,25,10,04,24.20
2017,06,25,10,05,24.20
2017,06,25,10,06,24.20
2017,06,25,10,07,24.30
2017,06,25,10,08,24.40
2017,06,25,10,09,24.40
2017,06,25,10,10,24.50
2017,06,25,10,11,24.50
2017,06,25,10,12,24.50
2017,06,25,10,13,24.50
2017,06,25,10,14,24.40
2017,06,25,10,15,24.40
2017,06,25,10,16,24.30
2017,06,25,10,17,24.30
2017,06,25,10,18,24.20
2017,06,25,10,19,24.20
2017,06,25,10,20,24.20
2017,06,25,10,21,24.20
2017,06,25,10,22,24.20
2017,06,25,10,23,24.20
2017,06,25,10,24,24.20
2017,06,25,10,25,24.20
2017,06,25,10,26,24.30
2017,06,25,10,27,24.30
2017,06,25,10,28,24.40
2017,06,25,10,29,24.50
2017,06,25,10,30,24.50
2017,06,25,10,31,24.60
2017,06,25,10,32,24.60
2017,06,25,10,33,24.60
2017,06,25,10,34,24.60
2017,06,25,10,35,24.60
2017,06,25,10,36,24.70
2017,06,25,10,37,24.80
2017,06,25,10,38,24.80
2017,06,25,10,39,24.90
2017,06,25,10,40,24.90
2017,06,25,10,41,24.80
2017,06,25,10,42,24.80
2017,06,25,10,43,24.70
2017,06,25,10,44,24.70
2017,06,25,10,45,24.60
2017,06,25,10,46,24.50
2017,06,25,10,47,24.40
2017,06,25,10,48,24.20
2017,06,25,10,49,24.20
2017,06,25,10,50,24.20
2017,06,25,10,51,24.20
2017,06,25,10,52,24.20
2017,06,25,10,53,24.30
2017,06,25,10,54,24.40
2017,06,25,10,55,24.30
2017,06,25,10,56,24.30
2017,06,25,10,57,24.20
2017,06,25,10,58,24.30
2017,06,25,10,59,24.30
2017,06,25,11,00,24.40
2017,06,25,11,01,24.40
2017,06,25,11,02,24.40
2017,06,25,11,03,24.30
2017,06,25,11,04,24.30
2017,06,25,11,05,24.30
2017,06,25,11,06,24.40
2017,06,25,11,07,24.40
2017,06,25,11,08,24.50
2017,06,25,11,09,24.50
2017,06,25,11,10,24.40
2017,06,25,11,11,24.30
2017,06,25,11,12,24.40
2017,06,25,11,13,24.60
2017,06,25,11,14,24.70
2017,06,25,11,15,24.80
2017,06,25,11,16,24.90
2017,06,25,11,17,25.00
2017,06,25,11,18,25.10
2017,06,25,11,19,25.10
2017,06,25,11,20,25.10
2017,06,25,11,21,25.20
2017,06,25,11,22,25.30
2017,06,25,11,23,25.40
2017,06,25,11,24,25.50
2017,06,25,11,25,25.50
2017,06,25,11,26,25.50
2017,06,25,11,27,25.60
2017,06,25,11,28,25.50
2017,06,25,11,29,25.60
2017,06,25,11,30,25.60
2017,06,25,11,31,25.60
2017,06,25,11,32,25.60
2017,06,25,11,33,25.60
2017,06,25,11,34,25.60
2017,06,25,11,35,25.50
2017,06,25,11,36,25.40
2017,06,25,11,37,25.30
2017,06,25,11,38,25.30
2017,06,25,11,39,25.30
2017,06,25,11,40,25.30
2017,06,25,11,41,25.30
2017,06,25,11,42,25.20
2017,06,25,11,43,25.10
2017,06,25,11,44,24.90
2017,06,25,11,45,24.80
2017,06,25,11,46,24.80
2017,06,25,11,47,24.80
2017,06,25,11,48,24.80
2017,06,25,11,49,24.80
2017,06,25,11,50,24.90
2017,06,25,11,51,25.10
2017,06,25,11,52,25.20
2017,06,25,11,53,25.30
2017,06,25,11,54,25.30
2017,06,25,11,55,25.40
2017,06,25,11,56,25.30
2017,06,25,11,57,25.30
2017,06,25,11,58,25.30
2017,06,25,11,59,25.20
2017,06,25,12,00,25.20
2017,06,25,12,01,25.10
2017,06,25,12,02,25.00
2017,06,25,12,03,24.90
2017,06,25,12,04,24.90
2017,06,25,12,05,24.80
2017,06,25,12,06,24.80
2017,06,25,12,07,24.70
2017,06,25,12,08,24.80
2017,06,25,12,09,24.80
2017,06,25,12,10,24.80
2017,06,25,12,11,24.90
2017,06,25,12,12,25.00
2017,06,25,12,13,25.10
2017,06,25,12,14,25.10
2017,06,25,12,15,25.20
2017,06,25,12,16,25.30
2017,06,25,12,17,25.30
2017,06,25,12,18,25.40
2017,06,25,12,19,25.40
2017,06,25,12,20,25.50
2017,06,25,12,21,25.60
2017,06,25,12,22,25.60
2017,06,25,12,23,25.60
2017,06,25,12,24,25.60
2017,06,25,12,25,25.60
2017,06,25,12,26,25.60
2017,06,25,12,27,25.50
2017,06,25,12,28,25.50
2017,06,25,12,29,25.50
2017,06,25,12,30,25.50
2017,06,25,12,31,25.50
2017,06,25,12,32,25.50
2017,06,25,12,33,25.40
2017,06,25,12,34,25.30
2017,06,25,12,35,25.20
2017,06,25,12,36,25.10
2017,06,25,12,37,25.10
2017,06,25,12,38,25.00
2017,06,25,12,39,25.00
2017,06,25,12,40,25.10
2017,06,25,12,41,25.10
2017,06,25,12,42,25.20
2017,06,25,12,43,25.20
2017,06,25,12,44,25.30
2017,06,25,12,45,25.30
2017,06,25,12,46,25.40
2017,06,25,12,47,25.40
2017,06,25,12,48,25.40
2017,06,25,12,49,25.30
2017,06,25,12,50,25.30
2017,06,25,12,51,25.30
2017,06,25,12,52,25.30
2017,06,25,12,53,25.30
2017,06,25,12,54,25.30
2017,06,25,12,55,25.30
2017,06,25,12,56,25.30
2017,06,25,12,57,25.30
2017,06,25,12,58,25.30
2017,06,25,12,59,25.30
2017,06,25,13,00,25.30
2017,06,25,13,01,25.30
2017,06,25,13,02,25.40
2017,06,25,13,03,25.40
2017,06,25,13,04,25.50
2017,06,25,13,05,25.60
2017,06,25,13,06,25.70
2017,06,25,13,07,25.70
2017,06,25,13,08,25.80
2017,06,25,13,09,25.80
2017,06,25,13,10,25.80
2017,06,25,13,11,25.80
2017,06,25,13,12,25.80
2017,06,25,13,13,25.80
2017,06,25,13,14,25.80
2017,06,25,13,15,25.80
2017,06,25,13,16,25.80
2017,06,25,13,17,25.80
2017,06,25,13,18,25.70
2017,06,25,13,19,25.60
2017,06,25,13,20,25.60
2017,06,25,13,21,25.50
2017,06,25,13,22,25.50
2017,06,25,13,23,25.50
2017,06,25,13,24,25.60
2017,06,25,13,25,25.60
2017,06,25,13,26,25.60
2017,06,25,13,27,25.70
2017,06,25,13,28,25.70
2017,06,25,13,29,25.70
2017,06,25,13,30,25.80
2017,06,25,13,31,25.90
2017,06,25,13,32,26.00
2017,06,25,13,33,26.10
2017,06,25,13,34,26.20
2017,06,25,13,35,26.30
2017,06,25,13,36,26.40
2017,06,25,13,37,26.40
2017,06,25,13,38,26.40
2017,06,25,13,39,26.40
2017,06,25,13,40,26.40
2017,06,25,13,41,26.50
2017,06,25,13,42,26.60
2017,06,25,13,43,26.50
2017,06,25,13,44,26.50
2017,06,25,13,45,26.50
2017,06,25,13,46,26.40
2017,06,25,13,47,26.30
2017,06,25,13,48,26.10
2017,06,25,13,49,26.00
2017,06,25,13,50,25.80
2017,06,25,13,51,25.70
2017,06,25,13,52,25.70
2017,06,25,13,53,25.50
2017,06,25,13,54,25.40
2017,06,25,13,55,25.30
2017,06,25,13,56,25.30
2017,06,25,13,57,25.20
2017,06,25,13,58,25.20
2017,06,25,13,59,25.20
2017,06,25,14,00,25.20
2017,06,25,14,01,25.30
2017,06,25,14,02,25.40
2017,06,25,14,03,25.60
2017,06,25,14,04,25.60
2017,06,25,14,05,25.60
2017,06,25,14,06,25.60
2017,06,25,14,07,25.60
2017,06,25,14,08,25.60
2017,06,25,14,09,25.70
2017,06,25,14,10,25.80
2017,06,25,14,11,25.80
2017,06,25,14,12,25.80
2017,06,25,14,13,25.70
2017,06,25,14,14,25.70
2017,06,25,14,15,25.60
2017,06,25,14,16,25.50
2017,06,25,14,17,25.40
2017,06,25,14,18,25.40
2017,06,25,14,19,25.40
2017,06,25,14,20,25.40
2017,06,25,14,21,25.60
2017,06,25,14,22,25.60
2017,06,25,14,23,25.70
2017,06,25,14,24,25.60
2017,06,25,14,25,25.50
2017,06,25,14,26,25.50
2017,06,25,14,27,25.50
2017,06,25,14,28,25.50
2017,06,25,14,29,25.50
2017,06,25,14,30,25.40
2017,06,25,14,31,25.30
2017,06,25,14,32,25.30
2017,06,25,14,33,25.30
2017,06,25,14,34,25.30
2017,06,25,14,35,25.30
2017,06,25,14,36,25.20
2017,06,25,14,37,25.20
2017,06,25,14,38,25.20
2017,06,25,14,39,25.20
2017,06,25,14,40,25.00
2017,06,25,14,41,24.90
2017,06,25,14,42,24.80
2017,06,25,14,43,24.70
2017,06,25,14,44,24.80
2017,06,25,14,45,24.80
2017,06,25,14,46,24.70
2017,06,25,14,47,24.70
2017,06,25,14,48,24.60
2017,06,25,14,49,24.60
2017,06,25,14,50,24.60
2017,06,25,14,51,24.60
2017,06,25,14,52,24.70
2017,06,25,14,53,24.70
2017,06,25,14,54,24.70
2017,06,25,14,55,24.70
2017,06,25,14,56,24.70
2017,06,25,14,57,24.70
2017,06,25,14,58,24.70
2017,06,25,14,59,24.60
2017,06,25,15,00,24.60
2017,06,25,15,01,24.50
2017,06,25,15,02,24.40
2017,06,25,15,03,24.30
2017,06,25,15,04,24.30
2017,06,25,15,05,24.30
2017,06,25,15,06,24.50
2017,06,25,15,07,24.70
2017,06,25,15,08,24.80
2017,06,25,15,09,24.80
2017,06,25,15,10,24.80
2017,06,25,15,11,24.70
2017,06,25,15,12,24.70
2017,06,25,15,13,24.70
2017,06,25,15,14,24.70
2017,06,25,15,15,24.80
2017,06,25,15,16,24.80
2017,06,25,15,17,24.80
2017,06,25,15,18,24.90
2017,06,25,15,19,25.00
2017,06,25,15,20,25.10
2017,06,25,15,21,25.20
2017,06,25,15,22,25.20
2017,06,25,15,23,25.30
2017,06,25,15,24,25.30
2017,06,25,15,25,25.30
2017,06,25,15,26,25.20
2017,06,25,15,27,25.20
2017,06,25,15,28,25.10
2017,06,25,15,29,25.10
2017,06,25,15,30,25.00
2017,06,25,15,31,25.00
2017,06,25,15,32,24.90
2017,06,25,15,33,24.90
2017,06,25,15,34,24.80
2017,06,25,15,35,24.80
2017,06,25,15,36,24.80
2017,06,25,15,37,24.80
2017,06,25,15,38,24.80
2017,06,25,15,39,24.90
2017,06,25,15,40,24.90
2017,06,25,15,41,24.90
2017,06,25,15,42,24.90
2017,06,25,15,43,24.90
2017,06,25,15,44,24.90
2017,06,25,15,45,24.90
2017,06,25,15,46,24.90
2017,06,25,15,47,24.90
2017,06,25,15,48,24.90
2017,06,25,15,49,24.90
2017,06,25,15,50,24.90
2017,06,25,15,51,25.00
2017,06,25,15,52,25.10
2017,06,25,15,53,25.10
2017,06,25,15,54,25.10
2017,06,25,15,55,25.10
2017,06,25,15,56,25.20
2017,06,25,15,57,25.30
2017,06,25,15,58,25.40
2017,06,25,15,59,25.40
2017,06,25,16,00,25.40
2017,06,25,16,01,25.40
2017,06,25,16,02,25.40
2017,06,25,16,03,25.40
2017,06,25,16,04,25.40
2017,06,25,16,05,25.40
2017,06,25,16,06,25.40
2017,06,25,16,07,25.40
2017,06,25,16,08,25.40
2017,06,25,16,09,25.30
2017,06,25,16,10,25.30
2017,06,25,16,11,25.30
2017,06,25,16,12,25.20
2017,06,25,16,13,25.10
2017,06,25,16,14,25.00
2017,06,25,16,15,24.90
2017,06,25,16,16,24.90
2017,06,25,16,17,24.90
2017,06,25,16,18,25.00
2017,06,25,16,19,25.10
2017,06,25,16,20,25.10
2017,06,25,16,21,25.20
2017,06,25,16,22,25.30
2017,06,25,16,23,25.50
2017,06,25,16,24,25.70
2017,06,25,16,25,25.80
2017,06,25,16,26,26.00
2017,06,25,16,27,26.20
2017,06,25,16,28,26.40
2017,06,25,16,29,26.50
2017,06,25,16,30,26.60
2017,06,25,16,31,26.70
2017,06,25,16,32,26.80
2017,06,25,16,33,26.80
2017,06,25,16,34,26.90
2017,06,25,16,35,27.00
2017,06,25,16,36,27.10
2017,06,25,16,37,27.20
2017,06,25,16,38,27.20
2017,06,25,16,39,27.20
2017,06,25,16,40,27.30
2017,06,25,16,41,27.30
2017,06,25,16,42,27.20
2017,06,25,16,43,27.10
2017,06,25,16,44,26.90
2017,06,25,16,45,26.80
2017,06,25,16,46,26.60
2017,06,25,16,47,26.50
2017,06,25,16,48,26.30
2017,06,25,16,49,26.30
2017,06,25,16,50,26.30
2017,06,25,16,51,26.20
2017,06,25,16,52,26.20
2017,06,25,16,53,26.20
2017,06,25,16,54,26.10
2017,06,25,16,55,26.00
2017,06,25,16,56,26.00
2017,06,25,16,57,25.90
2017,06,25,16,58,25.80
2017,06,25,16,59,25.70
2017,06,25,17,00,25.60
2017,06,25,17,01,25.50
2017,06,25,17,02,25.40
2017,06,25,17,03,25.30
2017,06,25,17,04,25.30
2017,06,25,17,05,25.20
2017,06,25,17,06,25.20
2017,06,25,17,07,25.20
2017,06,25,17,08,25.20
2017,06,25,17,09,25.20
2017,06,25,17,10,25.30
2017,06,25,17,11,25.30
2017,06,25,17,12,25.30
2017,06,25,17,13,25.40
2017,06,25,17,14,25.30
2017,06,25,17,15,25.30
2017,06,25,17,16,25.20
2017,06,25,17,17,25.10
2017,06,25,17,18,25.10
2017,06,25,17,19,25.10